Weather History for Pagosa Springs, CO

Change the Weather History Date:

Monday, April 29, 2013

  Actual Average (KDRO) Record (KDRO)
Temperature  
Mean Temperature 52 °F 48 °F  
Max Temperature 73 °F 65 °F 78 °F (1981)
Min Temperature 32 °F 31 °F 18 °F (1970)
Degree Days  
Heating Degree Days 12 17  
Month to date heating degree days 591  
Since 1 July heating degree days 6620  
Cooling Degree Days 0 0  
Month to date cooling degree days 0  
Year to date cooling degree days 0  
Growing Degree Days 2 (Base 50)    
Moisture  
Dew Point 17 °F    
Average Humidity 29    
Maximum Humidity 59    
Minimum Humidity 10    
Precipitation  
Precipitation 0.00 in 0.02 in 0.14 in (2004)
Month to date precipitation 1.07  
Year to date precipitation 4.60  
Sea Level Pressure  
Sea Level Pressure 30.02 in    
Wind  
Wind Speed 4 mph (SW)    
Max Wind Speed 28 mph    
Max Gust Speed 38 mph    
Visibility 10 miles    
Events      
T = Trace of Precipitation, MM = Missing Value Source: NWS Daily Summary

Daily Weather History Graph

Daily Weather History Graph

Search for Another Location

Airport:

Trip Planner

Search our weather history database for the weather conditions in past years. The results will help you decide how hot, cold, wet, or windy it might be!

Date:

Astronomy

Apr. 29, 2013 Rise Set
Actual Time 6:15 AM MDT 7:56 PM MDT
Civil Twilight 5:47 AM MDT 8:24 PM MDT
Nautical Twilight 5:13 AM MDT 8:57 PM MDT
Astronomical Twilight 4:38 AM MDT 9:33 PM MDT
Moon No Moon Rise 9:41 AM MDT (4/29)
Length of Visible Light 14h 36m
Length of Day
13h 40m
Waning Gibbous, 79% of the Moon is Illuminated
Apr 29
Waning Gibbous
May 2
Last Quarter
May 9
New
May 17
First Quarter
May 24
Full

Hourly Weather History & Observations

Time (MDT) Temp. Windchill Dew Point Humidity Pressure Visibility Wind Dir Wind Speed Gust Speed Precip Events Conditions
12:15 AM 41.4 °F - 17.8 °F 39% 30.10 in 10.0 mi Calm Calm - N/A   Clear
12:35 AM 40.5 °F - 17.8 °F 40% 30.10 in 10.0 mi Calm Calm - N/A   Clear
12:55 AM 41.2 °F 39.2 °F 17.4 °F 38% 30.10 in 10.0 mi ENE 3.5 mph - N/A   Clear
1:15 AM 39.6 °F - 20.5 °F 46% 30.11 in 10.0 mi Calm Calm - N/A   Clear
1:35 AM 37.0 °F - 20.7 °F 52% 30.10 in 10.0 mi Calm Calm - N/A   Clear
1:55 AM 37.2 °F - 19.6 °F 49% 30.10 in 10.0 mi Calm Calm - N/A   Clear
2:15 AM 39.2 °F - 19.0 °F 44% 30.09 in 10.0 mi Calm Calm - N/A   Clear
2:35 AM 39.7 °F - 18.3 °F 42% 30.09 in 10.0 mi Calm Calm - N/A   Clear
2:55 AM 36.3 °F 33.7 °F 19.4 °F 50% 30.09 in 10.0 mi NE 3.5 mph - N/A   Clear
3:15 AM 36.3 °F - 19.6 °F 51% 30.09 in 10.0 mi Calm Calm - N/A   Clear
3:35 AM 36.5 °F - 19.2 °F 50% 30.09 in 10.0 mi Calm Calm - N/A   Clear
3:55 AM 37.2 °F - 19.2 °F 48% 30.09 in 10.0 mi Calm Calm - N/A   Clear
4:15 AM 36.7 °F - 19.9 °F 51% 30.09 in 10.0 mi Calm Calm - N/A   Clear
4:35 AM 34.9 °F - 21.6 °F 58% 30.09 in 10.0 mi Calm Calm - N/A   Clear
4:55 AM 35.2 °F - 19.8 °F 53% 30.09 in 10.0 mi Calm Calm - N/A   Clear
5:15 AM 35.1 °F 32.2 °F 19.8 °F 54% 30.09 in 10.0 mi WNW 3.5 mph - N/A   Clear
5:35 AM 35.4 °F - 19.4 °F 52% 30.08 in 10.0 mi Calm Calm - N/A   Clear
5:55 AM 35.2 °F - 19.6 °F 53% 30.09 in 10.0 mi Calm Calm - N/A   Clear
6:15 AM 34.0 °F - 19.8 °F 56% 30.08 in 10.0 mi Calm Calm - N/A   Clear
6:35 AM 32.9 °F - 20.1 °F 59% 30.09 in 10.0 mi Calm Calm - N/A   Clear
6:55 AM 37.2 °F - 20.8 °F 52% 30.09 in 10.0 mi Calm Calm - N/A   Clear
7:15 AM 38.5 °F - 21.6 °F 51% 30.09 in 10.0 mi Calm Calm - N/A   Clear
7:35 AM 44.1 °F - 22.1 °F 42% 30.09 in 10.0 mi Calm Calm - N/A   Clear
7:55 AM 47.1 °F - 20.1 °F 34% 30.09 in 10.0 mi West 3.5 mph - N/A   Clear
8:15 AM 50.0 °F - 17.2 °F 27% 30.09 in 10.0 mi Calm Calm - N/A   Clear
8:35 AM 52.5 °F - 18.7 °F 26% 30.08 in 10.0 mi Calm Calm - N/A   Clear
8:55 AM 53.4 °F - 21.0 °F 28% 30.08 in 10.0 mi Calm Calm - N/A   Clear
9:15 AM 54.7 °F - 20.8 °F 27% 30.07 in 10.0 mi Calm Calm - N/A   Clear
9:35 AM 56.7 °F - 21.4 °F 25% 30.07 in 10.0 mi Calm Calm - N/A   Clear
9:55 AM 59.0 °F - 19.8 °F 22% 30.07 in 10.0 mi South 4.6 mph - N/A   Clear
10:15 AM 60.1 °F - 16.9 °F 19% 30.07 in 10.0 mi South 4.6 mph - N/A   Clear
10:35 AM 61.0 °F - 18.1 °F 19% 30.07 in 10.0 mi Calm Calm - N/A   Clear
10:55 AM 63.7 °F - 17.2 °F 17% 30.06 in 10.0 mi SSW 6.9 mph - N/A   Clear
11:15 AM 64.9 °F - 14.9 °F 14% 30.05 in 10.0 mi SW 9.2 mph 16.1 mph N/A   Clear
11:35 AM 67.3 °F - 14.4 °F 13% 30.04 in 10.0 mi WSW 12.7 mph 23.0 mph N/A   Scattered Clouds
11:55 AM 67.5 °F - 13.1 °F 12% 30.04 in 10.0 mi SW 15.0 mph 24.2 mph N/A   Scattered Clouds
12:15 PM 68.2 °F - 12.9 °F 12% 30.03 in 10.0 mi SSW 9.2 mph 24.2 mph N/A   Scattered Clouds
12:35 PM 68.4 °F - 12.7 °F 12% 30.02 in 10.0 mi SW 19.6 mph 24.2 mph N/A   Scattered Clouds
12:55 PM 68.7 °F - 13.6 °F 12% 30.01 in 10.0 mi SSW 17.3 mph 24.2 mph N/A   Scattered Clouds
1:15 PM 70.0 °F - 14.0 °F 12% 30.01 in 10.0 mi SW 10.4 mph 23.0 mph N/A   Scattered Clouds
1:35 PM 69.4 °F - 13.6 °F 12% 29.99 in 10.0 mi SW 20.7 mph 26.5 mph N/A   Mostly Cloudy
1:55 PM 71.4 °F - 14.2 °F 11% 29.99 in 10.0 mi West 20.7 mph 26.5 mph N/A   Scattered Clouds
2:15 PM 69.8 °F - 12.6 °F 11% 29.99 in 10.0 mi SW 13.8 mph 31.1 mph N/A   Mostly Cloudy
2:35 PM 71.4 °F - 12.9 °F 11% 29.97 in 10.0 mi SW 18.4 mph 23.0 mph N/A   Scattered Clouds
2:55 PM 71.8 °F - 12.4 °F 10% 29.95 in 10.0 mi SSW 21.9 mph 29.9 mph N/A   Scattered Clouds
3:15 PM 71.8 °F - 11.8 °F 10% 29.95 in 10.0 mi SW 23.0 mph 31.1 mph N/A   Scattered Clouds
3:35 PM 70.9 °F - 12.9 °F 11% 29.95 in 10.0 mi SW 18.4 mph 23.0 mph N/A   Mostly Cloudy
3:55 PM 73.4 °F - 12.9 °F 10% 29.94 in 10.0 mi SW 11.5 mph 24.2 mph N/A   Mostly Cloudy
4:15 PM 72.9 °F - 11.7 °F 10% 29.94 in 10.0 mi West 17.3 mph 25.3 mph N/A   Scattered Clouds
4:35 PM 72.5 °F - 12.6 °F 10% 29.94 in 10.0 mi WSW 15.0 mph 27.6 mph N/A   Scattered Clouds
4:55 PM 71.1 °F - 11.5 °F 10% 29.93 in 10.0 mi WSW 9.2 mph 19.6 mph N/A   Clear
5:15 PM 71.4 °F - 10.6 °F 10% 29.93 in 10.0 mi West 18.4 mph 38.0 mph N/A   Scattered Clouds
5:35 PM 70.9 °F - 14.5 °F 12% 29.94 in 10.0 mi West 27.6 mph 32.2 mph N/A   Clear
5:55 PM 70.7 °F - 11.3 °F 10% 29.93 in 10.0 mi WSW 15.0 mph 24.2 mph N/A   Clear
6:15 PM 70.2 °F - 12.9 °F 11% 29.93 in 10.0 mi WSW 11.5 mph 21.9 mph N/A   Clear
6:35 PM 67.8 °F - 13.6 °F 12% 29.94 in 10.0 mi WSW 17.3 mph 26.5 mph N/A   Clear
6:55 PM 68.4 °F - 13.8 °F 12% 29.93 in 10.0 mi WSW 6.9 mph 21.9 mph N/A   Clear
7:15 PM 68.2 °F - 13.1 °F 12% 29.93 in 10.0 mi SW 4.6 mph - N/A   Clear
7:35 PM 65.5 °F - 16.3 °F 15% 29.93 in 10.0 mi West 6.9 mph - N/A   Clear
7:55 PM 64.2 °F - 15.6 °F 15% 29.93 in 10.0 mi WSW 6.9 mph - N/A   Clear
8:15 PM 63.5 °F - 16.0 °F 16% 29.94 in 10.0 mi SW 5.8 mph - N/A   Clear
8:35 PM 58.1 °F - 18.5 °F 21% 29.94 in 10.0 mi Calm Calm - N/A   Clear
8:55 PM 54.9 °F - 19.0 °F 25% 29.94 in 10.0 mi Calm Calm - N/A   Clear
9:35 PM 54.7 °F - 19.0 °F 25% 29.95 in 10.0 mi Calm Calm - N/A   Clear
9:55 PM 47.1 °F - 23.4 °F 39% 29.95 in 10.0 mi Calm Calm - N/A   Clear
10:15 PM 52.9 °F - 18.3 °F 26% 29.95 in 10.0 mi Calm Calm - N/A   Clear
10:35 PM 46.0 °F - 22.6 °F 40% 29.95 in 10.0 mi Calm Calm - N/A   Clear
10:55 PM 47.3 °F - 20.7 °F 35% 29.95 in 10.0 mi Calm Calm - N/A   Clear
11:15 PM 48.7 °F - 20.8 °F 33% 29.95 in 10.0 mi Calm Calm - N/A   Clear
11:35 PM 45.9 °F - 20.8 °F 37% 29.95 in 10.0 mi Calm Calm - N/A   Clear
11:55 PM 45.0 °F - 22.3 °F 41% 29.95 in 10.0 mi Calm Calm - N/A   Clear